Location: Ferchesar
(52.6477°N, 12.4298°E)
Time: 10:30:28
(UTC+01:00)

AO-73 - Pass Details

Date: 23 October 2021
Orbit: 581 x 661 km, 97.6° (Epoch: 28 November)

Event Time Altitude Azimuth Distance (km) Brightness Sun altitude
Rises 05:43:32 0° 16° (NNE) 2,819 ? -19.8°
Reaches altitude 10° 05:45:43 10° 20° (NNE) 1,917 ? -19.5°
Maximum altitude 05:49:49 60° 101° (E) 680 ? -18.9°
Drops below altitude 10° 05:53:57 10° 182° (S) 1,928 ? -18.3°
Sets 05:56:09 0° 186° (S) 2,836 ? -17.9°
